EW7837 Weather Reports


time (UTC)temp
F
wind
direction
speed
knots
gust
knots
rain 1hr
in
rain 24hr
in
rain mn
in
humidity
%
barometer
mb
20260506201505 70 219 1.7 0.0 0.00 0.00 0.00 67 1013.9
20260506200005 70 271 1.7 0.0 0.00 0.00 0.00 67 1014.2
20260506194538 70 261 1.7 0.0 0.00 0.00 0.00 67 1014.2
20260506193033 70 270 0.9 0.0 0.00 0.00 0.00 67 1014.3
20260506191508 70 271 1.7 0.0 0.00 0.00 0.00 67 1014.3
20260506190000 70 207 0.9 0.0 0.00 0.00 0.00 68 1014.4
20260506184556 70 266 0.9 0.0 0.00 0.00 0.00 67 1014.7
20260506183100 70 261 0.9 0.0 0.00 0.00 0.00 67 1014.7
20260506181602 70 259 0.9 0.0 0.00 0.00 0.00 66 1014.8
20260506180050 71 261 0.0 0.0 0.00 0.00 0.00 65 1014.8
20260506174544 71 260 0.0 0.0 0.00 0.00 0.00 62 1015.0
20260506173059 72 260 0.0 0.0 0.00 0.00 0.00 62 1015.2
20260506171544 70 260 0.0 0.0 0.00 0.00 0.00 61 1015.1
20260506170035 71 260 0.0 0.0 0.00 0.00 0.00 63 1015.2
20260506164528 69 260 0.0 0.0 0.00 0.00 0.00 65 1015.1
20260506163025 68 260 0.0 0.0 0.00 0.00 0.00 67 1015.1
20260506161521 66 260 0.0 0.0 0.00 0.00 0.00 69 1015.2
20260506160033 66 260 0.0 0.0 0.00 0.00 0.00 69 1015.2
20260506154516 65 260 0.0 0.0 0.00 0.00 0.00 71 1015.3
20260506153007 63 260 0.0 0.0 0.00 0.00 0.00 73 1015.3
20260506151505 62 260 0.0 0.0 0.00 0.00 0.00 77 1015.3
20260506150002 60 260 0.0 0.0 0.00 0.00 0.00 79 1015.3
20260506144555 58 260 0.0 0.0 0.00 0.00 0.00 82 1015.3
20260506143054 57 260 0.0 0.0 0.00 0.00 0.00 83 1015.3
20260506141552 56 260 0.0 0.0 0.00 0.00 0.00 85 1015.3
20260506140050 56 260 0.0 0.0 0.00 0.00 0.00 86 1015.3
20260506134548 55 260 0.0 0.0 0.00 0.00 0.00 86 1015.0
20260506133045 55 260 0.0 0.0 0.00 0.00 0.00 86 1014.8
20260506131556 56 260 0.0 0.0 0.00 0.00 0.00 86 1014.8
20260506130048 56 260 0.0 0.0 0.00 0.00 0.00 86 1014.6
20260506124513 56 260 0.0 0.0 0.00 0.00 0.00 86 1014.5
20260506123011 56 260 0.0 0.0 0.00 0.00 0.00 87 1014.3
20260506121508 56 260 0.0 0.0 0.00 0.00 0.00 86 1014.3
20260506120014 56 260 0.0 0.0 0.00 0.00 0.00 86 1014.3
20260506114508 56 260 0.0 0.0 0.00 0.00 0.00 86 1014.5
20260506113007 56 260 0.0 0.0 0.00 0.00 0.00 87 1014.4
20260506111505 56 260 0.0 0.0 0.00 0.00 0.00 88 1014.3
20260506110004 56 260 0.0 0.0 0.00 0.00 0.00 88 1014.3
20260506104503 56 260 0.0 0.0 0.00 0.00 0.00 88 1014.3
20260506103002 55 260 0.0 0.0 0.00 0.00 0.00 88 1014.3
20260506101503 54 260 0.0 0.0 0.00 0.00 0.00 88 1014.2
20260506100036 54 260 0.0 0.0 0.00 0.00 0.00 87 1014.2
20260506094535 54 260 0.0 0.0 0.00 0.00 0.00 87 1014.1
20260506093033 54 260 0.0 0.0 0.00 0.00 0.00 86 1014.2
20260506091527 55 260 0.0 0.0 0.00 0.00 0.00 86 1014.3
20260506090022 55 260 0.0 0.0 0.00 0.00 0.00 85 1014.4
20260506084523 56 260 0.0 0.0 0.00 0.00 0.00 85 1014.7
20260506083100 57 260 0.0 0.0 0.00 0.00 0.00 83 1014.8
20260506081555 58 260 0.0 0.0 0.00 0.00 0.00 83 1014.8
20260506073010 59 260 0.0 0.0 0.00 0.00 0.00 82 1014.9
20260506071512 59 260 0.0 0.0 0.00 0.00 0.00 83 1014.8
20260506061600 60 260 0.0 0.0 0.00 0.00 0.00 79 1014.5
20260506060120 61 260 0.0 0.0 0.00 0.00 0.00 78 1014.6
20260506044544 63 260 0.0 0.0 0.00 0.00 0.00 75 1014.3
20260506043041 62 260 0.0 0.0 0.00 0.00 0.00 74 1014.1
20260506041541 62 260 0.0 0.0 0.00 0.00 0.00 76 1013.8
20260506040041 62 260 0.0 0.0 0.00 0.00 0.00 76 1013.7
20260506034539 63 260 0.0 0.0 0.00 0.00 0.00 75 1013.3
20260506033008 63 260 0.0 0.0 0.00 0.00 0.00 74 1013.2
20260506031506 63 260 0.0 0.0 0.00 0.00 0.00 73 1012.9
20260506030002 63 260 0.0 0.0 0.00 0.00 0.00 73 1012.7
20260506024503 63 260 0.0 0.0 0.00 0.00 0.00 72 1012.6
20260506023102 63 260 0.0 0.0 0.00 0.00 0.15 71 1012.4
20260506021559 64 260 0.0 0.0 0.00 0.00 0.15 70 1012.2
20260506020056 64 260 0.0 0.0 0.00 0.00 0.15 69 1012.2
20260506014556 65 260 0.0 0.0 0.00 0.00 0.15 67 1012.2
20260506013055 64 260 0.0 0.0 0.00 0.00 0.15 68 1012.1
20260506011556 65 263 0.0 0.0 0.00 0.00 0.15 67 1012.1
20260506010054 66 261 0.0 0.0 0.00 0.00 0.15 65 1012.0
20260506004554 67 263 0.0 0.0 0.00 0.00 0.15 64 1011.7
20260506003051 68 259 0.0 0.0 0.00 0.00 0.15 63 1011.7
20260506001551 68 232 0.0 0.0 0.00 0.00 0.15 61 1011.7
20260506000048 68 266 0.0 0.0 0.00 0.00 0.15 61 1011.7
20260505234550 68 259 0.0 0.0 0.00 0.00 0.15 61 1011.8
20260505233047 69 265 0.0 0.0 0.00 0.00 0.15 60 1011.9
20260505231559 69 250 0.0 0.0 0.00 0.00 0.15 60 1012.1
20260505230037 69 265 0.0 0.0 0.00 0.00 0.15 61 1012.1
20260505224517 69 263 0.9 0.0 0.00 0.00 0.15 60 1012.2
20260505223016 69 271 1.7 0.0 0.00 0.00 0.15 60 1012.3
20260505221516 69 277 0.9 0.0 0.00 0.00 0.15 60 1012.2
20260505220012 69 279 0.9 0.0 0.00 0.00 0.15 59 1012.3
20260505214512 69 279 0.9 0.0 0.00 0.00 0.15 56 1012.5
20260505213012 69 263 0.9 0.0 0.00 0.00 0.15 59 1012.6
20260505211513 69 272 0.9 0.0 0.00 0.00 0.15 63 1012.6
20260505210012 69 257 0.9 0.0 0.00 0.00 0.15 63 1012.7
20260505204506 68 277 0.9 0.0 0.00 0.00 0.15 64 1012.7
20260505203006 69 268 0.9 0.0 0.00 0.00 0.15 63 1012.7